Location: Torrington
(42.0650°N, 104.1810°W)
Time: 15:32:10
(UTC-06:00)

Amateur Radio Satellites - All Passes

Search period start: 22 July 2014 15:02
Search period end: 23 July 2014 15:02
Location: Torrington, 42.0650°N, 104.1810°W

Satellite Date Start Highest point End Downlink Frequencies (MHz)
Time Altitude Azimuth
Uribyol 2 22 Jul 15:04:54 15:09:32 32° 264° (W) 15:14:11 436.500 FM
RS-15 22 Jul 15:07:10 15:18:19 82° 120° (ESE) 15:29:16 29.354 - 29.394 USB, Beacon 29.352 USB
AO-7 22 Jul 15:07:15 15:14:33 35° 58° (ENE) 15:21:52 29.400 - 29.500 MHz
KITSAT 1 22 Jul 15:09:10 15:15:50 27° 38° (NE) 15:22:27 435.175 FM
AO-Echo 22 Jul 15:24:08 15:28:17 24° 267° (W) 15:32:30 ?
UOSAT-12 22 Jul 15:26:10 15:29:15 18° 110° (ESE) 15:32:24 437.025 FM, 437.400 FM
JAS-1B 22 Jul 15:28:14 15:36:27 61° 261° (W) 15:45:59 435.800 - 435.900 CW/SSB
Uosat F 22 Jul 15:35:37 15:40:09 34° 68° (ENE) 15:44:42 435.120 FM
OPAL 22 Jul 16:01:54 16:05:30 19° 95° (E) 16:09:06 ?
TMSAT-1 22 Jul 16:02:35 16:07:23 35° 263° (W) 16:12:13 436.925 FM
SO-50 22 Jul 16:05:48 16:09:13 21° 318° (NW) 16:12:41 436.795 FM
Gurwin Techsat 1B 22 Jul 16:24:06 16:27:28 17° 269° (W) 16:30:52 435.225 FM
JAS-2 22 Jul 16:26:25 16:30:34 16° 54° (NE) 16:34:37 435.800 - 435.900 CW/SSB, 435.910 FM
AO-7 22 Jul 16:58:46 17:06:57 58° 257° (WSW) 17:15:11 29.400 - 29.500 MHz
KITSAT 1 22 Jul 17:04:09 17:12:17 88° 240° (WSW) 17:20:20 435.175 FM
UOSAT-12 22 Jul 17:04:27 17:08:58 55° 307° (NW) 17:13:36 437.025 FM, 437.400 FM
Uosat F 22 Jul 17:14:37 17:18:57 29° 264° (W) 17:23:18 435.120 FM
RS-15 22 Jul 17:22:06 17:31:55 35° 326° (NW) 17:41:44 29.354 - 29.394 USB, Beacon 29.352 USB
JAS-1B 22 Jul 17:26:42 17:29:09 11° 283° (WNW) 17:31:41 435.800 - 435.900 CW/SSB
OPAL 22 Jul 17:39:46 17:44:39 51° 291° (WNW) 17:49:33 ?
Hamsat 22 Jul 17:49:41 17:53:43 51° 73° (ENE) 17:57:47 145.90 MHz
Saudisat 1A 22 Jul 18:01:25 18:05:45 53° 53° (NE) 18:10:03 436.775 MHz
JAS-2 22 Jul 18:06:34 18:14:22 69° 72° (ENE) 18:21:53 435.800 - 435.900 CW/SSB, 435.910 FM
SO-67 22 Jul 18:22:38 18:24:43 15° 67° (ENE) 18:26:48 435.3500 MHz FM
UOSAT-12 22 Jul 18:48:46 18:50:12 11° 328° (NNW) 18:51:38 437.025 FM, 437.400 FM
KITSAT 1 22 Jul 19:01:34 19:06:31 18° 259° (W) 19:11:28 435.175 FM
Hamsat 22 Jul 19:27:56 19:30:00 13° 270° (W) 19:32:05 145.90 MHz
HO-68 22 Jul 19:37:48 19:43:11 24° 57° (ENE) 19:48:35 435.675 MHz FM
RS-15 22 Jul 19:40:57 19:48:49 21° 0° (N) 19:56:43 29.354 - 29.394 USB, Beacon 29.352 USB
Saudisat 1A 22 Jul 19:42:05 19:44:55 17° 250° (WSW) 19:47:45 436.775 MHz
STRAND 1 22 Jul 19:51:17 19:56:26 84° 104° (ESE) 20:01:31 ?
JAS-2 22 Jul 19:53:29 19:59:47 26° 269° (W) 20:05:59 435.800 - 435.900 CW/SSB, 435.910 FM
SO-67 22 Jul 19:54:25 19:57:32 31° 263° (W) 20:00:40 435.3500 MHz FM
Oscar 11 22 Jul 20:29:09 20:30:14 11° 61° (ENE) 20:31:20 145.825 FM, Beacon 2401.500 USB
SO-50 22 Jul 21:16:25 21:18:08 12° 33° (NNE) 21:19:52 436.795 FM
HO-68 22 Jul 21:23:02 21:30:12 74° 255° (WSW) 21:37:24 435.675 MHz FM
STRAND 1 22 Jul 21:32:30 21:34:54 13° 301° (WNW) 21:37:17 ?
RS-15 22 Jul 21:55:49 22:05:41 36° 35° (NE) 22:15:45 29.354 - 29.394 USB, Beacon 29.352 USB
Oscar 11 22 Jul 22:01:30 22:05:48 77° 258° (WSW) 22:10:08 145.825 FM, Beacon 2401.500 USB
MaSat-1 22 Jul 22:02:03 22:04:23 16° 100° (E) 22:06:56 437.345 MHz
FUNcube-1 22 Jul 22:03:56 22:08:03 41° 72° (ENE) 22:12:06 145.950 - 145.970 MHz USB
AO-40 22 Jul 22:53:36 04:31:29 37° 182° (S) 10:06:55 Beacon 2401.320
SO-50 22 Jul 22:55:00 22:59:41 58° 53° (NE) 23:04:26 436.795 FM
HO-68 22 Jul 23:16:36 23:19:02 12° 273° (W) 23:21:30 435.675 MHz FM
MaSat-1 22 Jul 23:37:21 23:41:08 46° 302° (WNW) 23:45:36 437.345 MHz
FUNcube-1 22 Jul 23:41:34 23:44:37 18° 267° (W) 23:47:38 145.950 - 145.970 MHz USB
UOSAT-12 22 Jul 23:54:09 23:57:52 22° 42° (NE) 00:01:33 437.025 FM, 437.400 FM
RS-15 23 Jul 00:08:14 00:19:17 82° 240° (WSW) 00:30:45 29.354 - 29.394 USB, Beacon 29.352 USB
SO-50 23 Jul 00:36:39 00:39:50 18° 250° (WSW) 00:43:02 436.795 FM
Lituanica SAT-1 23 Jul 00:59:21 01:01:31 83° 144° (SE) 01:03:42 437.275 MHz beacon
Oscar 16 23 Jul 01:11:33 01:13:32 12° 89° (E) 01:15:30 437.025 USB, Beacon 2401.1428
UOSAT-12 23 Jul 01:33:43 01:38:22 57° 241° (WSW) 01:42:56 437.025 FM, 437.400 FM
ISS 23 Jul 01:42:26 01:45:24 30° 136° (SE) 01:48:24 145.800 FM
Sapphire 23 Jul 01:45:09 01:49:49 31° 109° (ESE) 01:54:30 437.095 MHz 1200 baud AX-25 AFSK
AO-Echo 23 Jul 01:53:07 01:55:44 14° 89° (E) 01:58:17 ?
PCSat 23 Jul 02:18:26 02:23:46 64° 116° (ESE) 02:29:08 145.825 MHz
Oscar 19 23 Jul 02:21:09 02:26:13 55° 100° (E) 02:31:17 437.125 CW, 437.150 USB
RS-15 23 Jul 02:22:53 02:29:55 20° 261° (W) 02:37:08 29.354 - 29.394 USB, Beacon 29.352 USB
Lituanica SAT-1 23 Jul 02:33:36 02:34:43 13° 342° (NNW) 02:35:50 437.275 MHz beacon
TMSAT-1 23 Jul 02:40:42 02:42:03 11° 88° (E) 02:43:23 436.925 FM
Oscar 16 23 Jul 02:48:19 02:53:29 80° 285° (WNW) 02:58:38 437.025 USB, Beacon 2401.1428
ITAMSAT 1 23 Jul 02:55:21 03:00:26 53° 100° (E) 03:05:27 435.822 SSB
Gurwin Techsat 1B 23 Jul 02:58:19 03:02:34 24° 94° (E) 03:06:47 435.225 FM
AO-27 23 Jul 03:12:42 03:17:56 78° 103° (ESE) 03:23:06 436.795 MHz FM
JAS-1B 23 Jul 03:13:58 03:23:25 53° 97° (E) 03:31:40 435.800 - 435.900 CW/SSB
Uribyol 2 23 Jul 03:16:29 03:21:41 88° 104° (ESE) 03:26:50 436.500 FM
OPAL 23 Jul 03:17:01 03:21:32 37° 66° (ENE) 03:26:03 ?
ISS 23 Jul 03:18:55 03:22:05 38° 334° (NNW) 03:25:16 145.800 FM
Sapphire 23 Jul 03:28:01 03:33:05 40° 307° (NW) 03:38:12 437.095 MHz 1200 baud AX-25 AFSK
AO-Echo 23 Jul 03:29:53 03:35:03 70° 286° (WNW) 03:40:01 ?
Oscar 19 23 Jul 04:01:30 04:05:09 20° 297° (WNW) 04:08:47 437.125 CW, 437.150 USB
PCSat 23 Jul 04:03:26 04:07:39 23° 315° (NW) 04:11:53 145.825 MHz
TMSAT-1 23 Jul 04:17:20 04:22:40 89° 281° (W) 04:27:57 436.925 FM
Oscar 16 23 Jul 04:30:37 04:31:59 11° 303° (WNW) 04:33:21 437.025 USB, Beacon 2401.1428
ITAMSAT 1 23 Jul 04:35:46 04:39:32 21° 297° (WNW) 04:43:17 435.822 SSB
Gurwin Techsat 1B 23 Jul 04:37:41 04:42:42 44° 290° (WNW) 04:47:42 435.225 FM
AO-27 23 Jul 04:54:01 04:56:46 15° 301° (WNW) 04:59:32 436.795 MHz FM
OPAL 23 Jul 04:56:21 05:00:28 26° 263° (W) 05:04:37 ?
ISS 23 Jul 04:57:14 04:59:31 17° 353° (N) 05:01:47 145.800 FM
Uribyol 2 23 Jul 04:58:09 05:00:24 13° 302° (WNW) 05:02:39 436.500 FM
AO-7 23 Jul 04:59:44 05:07:47 50° 101° (E) 05:15:44 29.400 - 29.500 MHz
JAS-1B 23 Jul 05:04:40 05:13:35 43° 298° (WNW) 05:21:36 435.800 - 435.900 CW/SSB
Uosat F 23 Jul 05:20:59 05:26:03 85° 104° (ESE) 05:31:03 435.120 FM
STRAND 1 23 Jul 05:30:55 05:34:08 17° 61° (ENE) 05:37:21 ?
Lituanica SAT-1 23 Jul 05:40:34 05:42:04 16° 21° (NNE) 05:43:33 437.275 MHz beacon
KITSAT 1 23 Jul 05:44:48 05:46:25 11° 97° (E) 05:48:01 435.175 FM
TMSAT-1 23 Jul 05:59:32 06:01:48 13° 302° (WNW) 06:04:04 436.925 FM
Oscar 10/S400 23 Jul 06:12:13 07:30:39 35° 242° (WSW) 11:37:44 145.825 - 145.975 CW/USB, Beacon 145.810 USB
MaSat-1 23 Jul 06:21:02 06:21:25 10° 39° (NE) 06:21:48 437.345 MHz
ISS 23 Jul 06:34:36 06:37:11 20° 14° (NNE) 06:39:45 145.800 FM
AO-7 23 Jul 06:52:49 07:00:22 40° 300° (WNW) 07:07:53 29.400 - 29.500 MHz
JAS-1B 23 Jul 06:58:58 07:01:19 11° 321° (NW) 07:03:37 435.800 - 435.900 CW/SSB
Uosat F 23 Jul 07:01:55 07:04:06 13° 302° (WNW) 07:06:17 435.120 FM
JAS-2 23 Jul 07:02:16 07:08:28 55° 99° (E) 07:13:56 435.800 - 435.900 CW/SSB, 435.910 FM
STRAND 1 23 Jul 07:07:40 07:12:47 66° 258° (WSW) 07:17:55 ?
Hamsat 23 Jul 07:10:35 07:14:52 80° 284° (WNW) 07:19:10 145.90 MHz
Lituanica SAT-1 23 Jul 07:12:59 07:15:07 45° 218° (SW) 07:17:14 437.275 MHz beacon
SO-67 23 Jul 07:18:29 07:20:46 16° 93° (E) 07:23:02 435.3500 MHz FM
KITSAT 1 23 Jul 07:32:15 07:40:12 64° 115° (ESE) 07:48:11 435.175 FM
MaSat-1 23 Jul 07:54:51 08:00:03 50° 59° (ENE) 08:05:05 437.345 MHz
ISS 23 Jul 08:11:01 08:14:23 70° 33° (NNE) 08:17:44 145.800 FM
Saudisat 1A 23 Jul 08:11:08 08:12:47 12° 108° (ESE) 08:14:27 436.775 MHz
JAS-2 23 Jul 08:48:07 08:53:01 24° 300° (WNW) 08:57:31 435.800 - 435.900 CW/SSB, 435.910 FM
SO-67 23 Jul 08:50:52 08:53:53 28° 289° (WNW) 08:56:53 435.3500 MHz FM
HO-68 23 Jul 08:51:31 08:56:39 21° 92° (E) 09:01:44 435.675 MHz FM
PCSat 23 Jul 09:24:41 09:26:40 12° 35° (NE) 09:28:40 145.825 MHz
KITSAT 1 23 Jul 09:28:49 09:36:05 35° 317° (NW) 09:43:24 435.175 FM
MaSat-1 23 Jul 09:32:57 09:37:06 24° 257° (WSW) 09:41:06 437.345 MHz
PANSAT 23 Jul 09:35:32 09:36:28 11° 179° (S) 09:37:25 not established
Saudisat 1A 23 Jul 09:47:21 09:51:46 74° 305° (NW) 09:56:13 436.775 MHz
ISS 23 Jul 09:48:48 09:50:44 15° 229° (SW) 09:52:40 145.800 FM
Oscar 11 23 Jul 09:49:38 09:52:42 19° 93° (E) 09:55:44 145.825 FM, Beacon 2401.500 USB
Sapphire 23 Jul 10:32:11 10:36:56 30° 49° (NE) 10:41:39 437.095 MHz 1200 baud AX-25 AFSK
HO-68 23 Jul 10:37:51 10:44:59 74° 289° (WNW) 10:52:05 435.675 MHz FM
PCSat 23 Jul 11:05:59 11:11:20 56° 56° (NE) 11:16:39 145.825 MHz
Oscar 11 23 Jul 11:25:00 11:29:02 39° 289° (WNW) 11:33:04 145.825 FM, Beacon 2401.500 USB
FUNcube-1 23 Jul 11:28:40 11:32:51 84° 103° (ESE) 11:37:02 145.950 - 145.970 MHz USB
Saudisat 1A 23 Jul 11:30:08 11:32:08 13° 324° (NW) 11:34:08 436.775 MHz
KITSAT 1 23 Jul 11:30:33 11:34:25 14° 344° (NNW) 11:38:17 435.175 FM
Oscar 19 23 Jul 12:03:37 12:05:05 11° 57° (ENE) 12:06:32 437.125 CW, 437.150 USB
JAS-1B 23 Jul 12:14:09 12:17:27 12° 41° (NE) 12:20:49 435.800 - 435.900 CW/SSB
Sapphire 23 Jul 12:15:22 12:20:30 44° 248° (WSW) 12:25:36 437.095 MHz 1200 baud AX-25 AFSK
HO-68 23 Jul 12:27:41 12:31:30 15° 309° (NW) 12:35:19 435.675 MHz FM
Oscar 16 23 Jul 12:28:20 12:31:59 20° 63° (ENE) 12:35:40 437.025 USB, Beacon 2401.1428
RS-15 23 Jul 12:28:28 12:32:23 12° 95° (E) 12:36:15 29.354 - 29.394 USB, Beacon 29.352 USB
ITAMSAT 1 23 Jul 12:38:29 12:40:17 12° 57° (ENE) 12:42:04 435.822 SSB
PCSat 23 Jul 12:50:19 12:54:19 21° 254° (WSW) 12:58:18 145.825 MHz
AO-27 23 Jul 12:54:19 12:57:35 17° 61° (ENE) 13:00:51 436.795 MHz FM
Uribyol 2 23 Jul 12:57:32 13:01:03 19° 62° (ENE) 13:04:34 436.500 FM
AO-Echo 23 Jul 13:05:44 13:09:38 21° 63° (ENE) 13:13:34 ?
SO-50 23 Jul 13:12:24 13:15:04 16° 109° (ESE) 13:17:46 436.795 FM
KITSAT 1 23 Jul 13:30:14 13:34:07 14° 16° (NNE) 13:38:00 435.175 FM
Oscar 19 23 Jul 13:38:29 13:43:35 82° 75° (ENE) 13:48:44 437.125 CW, 437.150 USB
JAS-1B 23 Jul 13:57:16 14:05:21 47° 63° (ENE) 14:14:25 435.800 - 435.900 CW/SSB
TMSAT-1 23 Jul 14:00:40 14:04:27 20° 62° (ENE) 14:08:13 436.925 FM
Oscar 16 23 Jul 14:05:58 14:10:57 53° 260° (W) 14:15:58 437.025 USB, Beacon 2401.1428
AO-7 23 Jul 14:11:00 14:15:46 17° 46° (NE) 14:20:32 29.400 - 29.500 MHz
ITAMSAT 1 23 Jul 14:13:43 14:18:56 83° 75° (ENE) 14:24:11 435.822 SSB
Gurwin Techsat 1B 23 Jul 14:19:40 14:24:33 39° 69° (ENE) 14:29:28 435.225 FM
AO-27 23 Jul 14:31:21 14:36:32 68° 258° (WSW) 14:41:46 436.795 MHz FM
RS-15 23 Jul 14:31:28 14:42:25 65° 115° (ESE) 14:53:09 29.354 - 29.394 USB, Beacon 29.352 USB
Uribyol 2 23 Jul 14:34:55 14:40:03 60° 259° (WSW) 14:45:13 436.500 FM
AO-Echo 23 Jul 14:42:50 14:47:58 54° 260° (W) 14:53:13 ?
SO-50 23 Jul 14:50:44 14:55:08 58° 307° (NW) 14:59:39 436.795 FM
